DW4230 Weather Reports


time (UTC)temp
F
wind
direction
speed
knots
gust
knots
rain 1hr
in
rain 24hr
in
rain mn
in
humidity
%
barometer
mb
20260902101611 66 78 3.5 9.6 0.00 0.28 0.00 82 1018.8
20260902100057 65 95 2.6 10.4 0.00 0.28 0.00 83 1018.9
20260902094506 65 98 3.5 8.7 0.00 0.28 0.00 84 1018.7
20260902093038 66 93 2.6 8.7 0.00 0.28 0.00 84 1018.4
20260902091509 65 65 4.3 9.6 0.00 0.28 0.00 88 1018.4
20260902090029 64 77 3.5 7.8 0.00 0.28 0.00 92 1018.6
20260902084624 64 19 2.6 5.2 0.00 0.28 0.00 92 1018.4
20260902083024 64 40 2.6 7.8 0.00 0.28 0.00 91 1018.2
20260902081607 65 39 4.3 7.0 0.00 0.28 0.00 90 1018.1
20260902080032 66 46 3.5 11.3 0.00 0.28 0.00 86 1018.3
20260902074547 66 93 3.5 9.6 0.00 0.28 0.00 87 1018.3
20260902073009 66 83 4.3 12.2 0.00 0.28 0.00 86 1018.1
20260902071547 66 87 5.2 10.4 0.00 0.28 0.00 85 1017.8
20260902070016 66 76 4.3 10.4 0.00 0.28 0.00 83 1017.8
20260902064610 64 56 3.5 10.4 0.00 0.28 0.00 90 1018.0
20260902063037 64 77 2.6 5.2 0.00 0.28 0.00 92 1018.0
20260902061611 64 74 3.5 7.8 0.00 0.28 0.00 91 1018.1
20260902060036 64 48 2.6 7.0 0.00 0.28 0.00 89 1018.1
20260902054612 65 108 3.5 7.0 0.00 0.28 0.00 85 1018.1
20260902053028 65 80 2.6 7.0 0.00 0.28 0.00 88 1017.7
20260902051606 65 56 3.5 8.7 0.00 0.28 0.00 88 1017.6
20260902050028 65 150 3.5 8.7 0.00 0.28 0.00 88 1017.6
20260902044553 65 139 2.6 7.8 0.00 0.28 0.00 88 1017.5
20260902043003 65 69 2.6 7.8 0.00 0.28 0.28 87 1017.4
20260902041539 65 137 2.6 8.7 0.00 0.28 0.28 87 1017.5
20260902040011 65 129 2.6 8.7 0.00 0.28 0.28 86 1017.4
20260902034604 65 78 3.5 10.4 0.00 0.28 0.28 86 1017.3
20260902033027 65 93 3.5 8.7 0.00 0.28 0.28 85 1017.3
20260902031612 65 57 2.6 7.0 0.00 0.28 0.28 86 1017.4
20260902030043 65 97 3.5 6.1 0.00 0.28 0.28 85 1017.3
20260902024505 65 86 2.6 7.8 0.00 0.28 0.28 84 1017.1
20260902023046 64 82 1.7 6.1 0.00 0.28 0.28 80 1017.1
20260902021507 64 58 2.6 7.8 0.00 0.28 0.28 77 1016.8
20260902020039 63 78 2.6 6.1 0.00 0.28 0.28 77 1016.6
20260902014510 63 74 1.7 6.1 0.00 0.28 0.28 81 1016.7
20260902013049 63 82 2.6 5.2 0.00 0.28 0.28 86 1016.9
20260902011530 63 87 2.6 7.0 0.00 0.28 0.28 89 1016.6
20260902004524 63 114 2.6 6.1 0.00 0.28 0.28 89 1017.0
20260902003105 63 138 2.6 7.8 0.00 0.28 0.28 91 1017.0
20260902001543 62 158 1.7 6.1 0.00 0.28 0.28 91 1016.9
20260902000003 62 155 2.6 8.7 0.00 0.28 0.28 92 1016.8
20260901234546 62 171 1.7 11.3 0.00 0.28 0.28 93 1016.4
20260901233013 62 114 1.7 7.0 0.00 0.28 0.28 93 1016.4
20260901231553 62 124 0.9 6.1 0.00 0.28 0.28 93 1016.5
20260901230023 62 188 0.9 4.3 0.01 0.28 0.28 92 1016.5
20260901224619 61 133 1.7 8.7 0.01 0.28 0.28 92 1016.5
20260901223027 61 135 1.7 8.7 0.03 0.28 0.28 92 1016.6
20260901220018 60 191 4.3 12.2 0.05 0.28 0.28 92 1016.8
20260901214559 61 138 4.3 10.4 0.05 0.28 0.28 92 1016.7
20260901213125 61 134 1.7 9.6 0.04 0.26 0.26 92 1016.7
20260901211533 62 167 2.6 6.1 0.04 0.25 0.25 93 1016.6
20260901210010 63 170 1.7 5.2 0.02 0.23 0.23 92 1016.5
20260901204550 63 172 0.9 7.0 0.02 0.23 0.23 92 1016.3
20260901203023 62 94 1.7 6.1 0.01 0.22 0.22 92 1016.3
20260901201608 62 112 0.9 6.1 0.00 0.21 0.21 91 1016.2
20260901200032 62 92 0.9 7.8 0.00 0.21 0.21 89 1016.2
20260901194503 61 164 2.6 7.8 0.00 0.21 0.21 88 1016.1
20260901193038 61 186 2.6 8.7 0.04 0.21 0.21 90 1016.1
20260901191520 60 119 3.5 9.6 0.15 0.21 0.21 91 1015.8
20260901190053 61 159 2.6 11.3 0.17 0.21 0.21 93 1015.6
20260901184518 61 177 2.6 8.7 0.17 0.21 0.21 93 1015.6
20260901183103 61 181 2.6 7.0 0.14 0.17 0.17 93 1015.8
20260901181512 61 163 2.6 8.7 0.03 0.06 0.06 93 1016.3
20260901180039 61 173 3.5 8.7 0.01 0.04 0.04 92 1016.1
20260901174606 62 199 2.6 8.7 0.01 0.04 0.04 91 1016.2
20260901173035 62 124 0.9 7.8 0.00 0.03 0.03 91 1016.2
20260901163100 63 124 5.2 10.4 0.00 0.03 0.03 89 1016.2
20260901161527 64 188 3.5 13.0 0.00 0.03 0.03 87 1016.3
20260901160110 64 124 4.3 12.2 0.00 0.03 0.03 85 1016.3
20260901154608 65 124 4.3 12.2 0.02 0.03 0.03 82 1016.2
20260901153017 66 124 1.7 9.6 0.02 0.03 0.03 86 1016.3
20260901151551 67 124 1.7 6.1 0.02 0.03 0.03 87 1016.4
20260901150019 68 193 3.5 6.1 0.02 0.03 0.03 90 1016.3
20260901144559 68 193 0.9 3.5 0.00 0.01 0.01 90 1016.8
20260901143035 68 190 0.9 2.6 0.01 0.01 0.01 90 1016.6
20260901141604 69 200 0.9 6.1 0.01 0.01 0.01 90 1016.3
20260901140020 69 179 0.0 5.2 0.01 0.01 0.01 90 1016.3
20260901134600 69 187 0.9 5.2 0.01 0.01 0.01 89 1016.2
20260901133031 70 153 0.9 5.2 0.00 0.00 0.00 88 1016.2
20260901131611 70 203 0.0 3.5 0.00 0.00 0.00 87 1016.1
20260901130039 70 196 0.9 5.2 0.00 0.00 0.00 87 1015.8
20260901124515 70 198 0.9 4.3 0.00 0.00 0.00 87 1016.0
20260901123051 70 172 0.9 6.1 0.00 0.00 0.00 87 1016.0
20260901121520 70 204 0.0 7.0 0.00 0.00 0.00 88 1016.0
20260901120113 69 202 0.0 2.6 0.00 0.00 0.00 90 1016.0
20260901114535 68 210 0.0 4.3 0.00 0.00 0.00 90 1016.1
20260901113101 68 211 0.0 0.9 0.00 0.00 0.00 90 1016.0
20260901111521 68 212 0.0 0.0 0.00 0.00 0.00 90 1015.8
20260901110051 68 212 0.0 0.0 0.00 0.00 0.00 90 1015.8
20260901104515 68 212 0.0 0.0 0.00 0.00 0.00 90 1015.6
20260901103100 68 212 0.0 0.0 0.00 0.01 0.00 90 1015.6